Regional Weather Roundup
Issued by NWS

Home | Current Version | Previous Version | Text Only | Print | Product List | Glossary On
Versions: 1 2 3 4 5 6 7 8 9 10 11 12 13 14 15 16 17 18 19 20 21 22 23 24 25 26 27 28 29 30 31 32 33 34 35 36 37 38 39 40 41 42 43 44 45 46 47 48 49 50
000
ASUS42 KFFC 211010
RWRGA
WEATHER ROUNDUP FOR GEORGIA
NATIONAL WEATHER SERVICE PEACHTREE CITY GA
500 AM EST SAT JAN 21 2017

NOTE: "FAIR" INDICATES FEW OR NO CLOUDS BELOW 12,000 FEET WITH NO
SIGNIFICANT WEATHER AND/OR OBSTRUCTIONS TO VISIBILITY.

* = USE WITH CAUTION. THE STATIONS MARKED WITH AN ASTERISK MAY NOT
REPORT WEATHER SUCH AS PRECIPITATION, FOG, OR THUNDER AND ARE NOT
QUALITY CONTROLLED BY NWS.

THE REMARK "TC" DENOTES TEMPERATURE READING IN DEGREES CELSIUS.

GAZ001>058-211100-
NORTH GEORGIA

CITY           SKY/WX    TMP DP  RH WIND       PRES   REMARKS
ATLANTA        FOG       63  63 100 S3        29.83F VSB 1/4
ATHENS         FOG       59  59 100 CALM      29.86F VSB 1/2
CHAMBLEE       FOG       62  61  96 S3        29.85F VSB 1/2
PEACHTREE CITY FOG       60  60 100 SE5       29.83F VSB 3/4
ROME           FOG       56  54  93 NE3       29.80F VSB 1/2
WEST ATLANTA   CLOUDY    59  58  96 CALM      29.83F FOG
GAINESVILLE    FOG       59  59 100 CALM      29.88S VSB 1/4
CARTERSVILLE   CLOUDY    60  59  96 NE5       29.83F FOG


CITY           SKY/WX    TMP DP  RH WIND       PRES   REMARKS
DALTON*        CLOUDY    57  57 100 CALM      29.83F
MARIETTA       CLOUDY    63  61  94 CALM      29.83F FOG
CANTON*        FOG       54  52  94 CALM      29.86F VSB 1/4
$$

GAZ059>098-102>109-211100-
CENTRAL GEORGIA

CITY           SKY/WX    TMP DP  RH WIND       PRES   REMARKS
AUGUSTA-BUSH   CLOUDY    61  58  90 CALM      29.86F
AUGUSTA-DANIEL CLOUDY    64  59  83 S3        29.87F
COLUMBUS       CLOUDY    64  63  96 E3        29.80F
MACON          FOG       64  63  96 E3        29.84F VSB 3/4
ROBINS AFB     CLOUDY    64  64 100 SE5       29.83F FOG


CITY           SKY/WX    TMP DP  RH WIND       PRES   REMARKS
LAGRANGE*      CLOUDY    66  66 100 SE5       29.81F FOG
SYLVANIA*      CLOUDY   N/A N/A N/A CALM      29.88F FOG
MILLEDGEVILLE* CLOUDY    61  61 100 CALM      29.86F
$$

GAZ099>101-110>166-211100-
SOUTH GEORGIA

CITY           SKY/WX    TMP DP  RH WIND       PRES   REMARKS
SAVANNAH       CLOUDY    65  62  90 SW3       29.89F
VALDOSTA       LGT RAIN  69  69 100 SW8       29.87F FOG
ALMA           CLOUDY    69  68  96 S3        29.87F
ST SIMONS      CLOUDY    67  65  93 SW7       29.89F
FT STEWART     CLOUDY    64  64 100 CALM      29.85F
ALBANY         LGT RAIN  68  68 100 CALM      29.85F FOG
HUNTER AFB     CLOUDY    67  67 100 SW8       29.86F
MOODY AFB      LGT RAIN  70  68  94 S13       29.84F
BRUNSWICK      CLOUDY    68  68 100 SW8       29.90F


CITY           SKY/WX    TMP DP  RH WIND       PRES   REMARKS
BAINBRIDGE*    CLOUDY    66  63  88 S5        29.82F
MOULTRIE*      CLOUDY    70  68  94 S9        29.84F
VIDALIA*       CLOUDY    68  68 100 CALM      29.87F FOG
WAYCROSS*      CLOUDY    72  72 100 SW6       29.87F
DOUGLAS*       CLOUDY    70  68  94 S6        29.87F
$$




USA.gov is the U.S. government's official web portal to all federal, state and local government web resources and services.